OneWeb SL0356

operational
NORAD ID: 49283 Int'l Des: 2021-090 Owner: ONEWEBN Country: UK Constellation: oneweb
LEOCIRCULARPOLARONEWEB_TYPE

OneWeb SL0356について

説明を読み込み中...

リアルタイム位置

3D地球を読み込み中...

次回通過

高度履歴

Altitude vs Time

uPlot chart will show altitude changes over time

軌道要素

1 49283U 21090E 25351.78867092 -.00000035 00000-0 -11775-3 0 9995
2 49283 87.9210 310.6110 0002480 99.3396 260.8018 13.20770982205887
Epoch: Dec 17, 2025 • Age: 18 hours

現在のステータス

高度 1203.9 km
速度 7.25 km/s
衛星直下点 -53.43°S, 141.15°W
打ち上げ日 Oct 14, 2021
運用期間 4.1 years
タイプ internet

技術仕様

分類 Payload
質量 148.00 kg
乾燥質量 140.00 kg
総質量 148.00 kg
長さ 1.30 m
直径 1.00 m
スパン 5.00 m
形状 Trapezoid+2 pan
製造者 ONEWUS
バスタイプ ARROW
フェーズステータス In Orbit
所有者/国 ONEWEBN/UK

大規模コンステレーション

Loading constellations...